Location: Praha
(50.0830°N, 14.4670°E)
Time: 05:45:16
(UTC+02:00)

ISS - Pass Details

Date: 12 July 2024
Orbit: 409 x 423 km, 51.6° (Epoch: 24 July)

Event Time Altitude Azimuth Distance (km) Brightness Sun altitude
Rises 23:00:50 0° 258° (WSW) 2,334 0.3 -12.8°
Reaches altitude 10° 23:02:55 10° 259° (W) 1,474 -0.7 -13.0°
Maximum altitude 23:06:14 80° 348° (NNW) 421 -3.7 -13.2°
Drops below altitude 10° 23:09:33 10° 75° (ENE) 1,480 -1.1 -13.5°
Sets 23:11:39 0° 77° (ENE) 2,345 -0.1 -13.6°
